Latest Coastal Weather Observations for Spring Bay

IDT60701

Issued at 7:15 pm EDT Thursday 27 November 2014 (issued every 10 minutes, with the page automatically refreshed every 10 minutes)

About coastal observations | Map of coastal stations | Coastal observations for TAS | Marine services | Other Formats
Station Details ID: 092133 Name: SPRING BAY NTC AWS Lat: -42.55 Lon: 147.93 Height: 0.0 m
Data from the previous 72 hours. | See also: Recent months for locations in Tasmania
Date/Time
EDT
Temp

°C
Wind Pressure Rain
since 9am
mm
Weather Cloud Vis
km
Sea
Height
m
Swell
Dir
 
Speed
knots
Gust
knots
hPa Trend Height
m
Period
s
Dir
27/07:00pm 14.9 - - - 1022.8 - - - - - - - - -
27/06:30pm 14.8 - - - 1022.3 - - - - - - - - -
27/06:00pm 15.1 - - - 1022.1 - - - - - - - - -
27/05:30pm 15.3 - - - 1021.7 - - - - - - - - -
27/05:00pm 15.9 - - - 1021.7 - - - - - - - - -
27/04:30pm 16.0 - - - 1021.7 - - - - - - - - -
27/04:00pm 15.3 - - - 1021.7 - - - - - - - - -
27/03:30pm 15.7 - - - 1021.7 - - - - - - - - -
27/03:00pm 17.1 - - - 1021.7 - - - - - - - - -
27/02:30pm 16.9 - - - 1021.8 - - - - - - - - -
27/02:00pm 16.7 - - - 1021.8 - - - - - - - - -
27/01:30pm 16.4 - - - 1021.9 - - - - - - - - -
27/01:00pm 16.1 - - - 1021.9 - - - - - - - - -
27/12:30pm 15.7 - - - 1022.2 - - - - - - - - -
27/12:00pm 15.4 - - - 1022.4 - - - - - - - - -
27/11:30am 15.1 - - - 1022.6 - - - - - - - - -
27/11:00am 14.7 - - - 1022.7 - - - - - - - - -
27/10:30am 14.3 - - - 1022.8 - - - - - - - - -
27/10:00am 14.0 - - - 1022.9 - - - - - - - - -
27/09:30am 13.4 - - - 1023.1 - - - - - - - - -
27/09:00am 13.2 - - - 1022.9 - - - - - - - - -
27/08:30am 13.1 - - - 1022.7 - - - - - - - - -
27/08:00am 12.2 - - - 1022.8 - - - - - - - - -
27/07:30am 11.8 - - - 1022.6 - - - - - - - - -
27/07:00am 11.3 - - - 1022.3 - - - - - - - - -
27/06:30am 11.1 - - - 1022.2 - - - - - - - - -
27/06:00am 11.1 - - - 1021.9 - - - - - - - - -
27/05:30am 10.9 - - - 1021.5 - - - - - - - - -
27/05:00am 10.9 - - - 1021.1 - - - - - - - - -
27/04:30am 11.2 - - - 1020.9 - - - - - - - - -
27/04:00am 11.3 - - - 1020.7 - - - - - - - - -
27/03:30am 11.5 - - - 1020.5 - - - - - - - - -
27/03:00am 11.6 - - - 1020.4 - - - - - - - - -
27/02:30am 11.4 - - - 1020.4 - - - - - - - - -
27/02:00am 12.0 - - - 1020.4 - - - - - - - - -
27/01:30am 12.2 - - - 1020.5 - - - - - - - - -
27/01:00am 12.3 - - - 1020.4 - - - - - - - - -
27/12:30am 12.3 - - - 1020.7 - - - - - - - - -
27/12:00am 12.6 - - - 1020.6 - - - - - - - - -
 
Date/Time
EDT
Temp

°C
Wind Pressure Rain
since 9am
mm
Weather Cloud Vis
km
Sea
Height
m
Swell
Dir
 
Speed
knots
Gust
knots
hPa Trend Height
m
Period
s
Dir
26/11:30pm 12.6 - - - 1020.5 - - - - - - - - -
26/11:00pm 12.8 - - - 1020.4 - - - - - - - - -
26/10:30pm 13.2 - - - 1020.2 - - - - - - - - -
26/10:00pm 13.6 - - - 1020.0 - - - - - - - - -
26/09:30pm 13.9 - - - 1019.6 - - - - - - - - -
26/09:00pm 14.3 - - - 1019.0 - - - - - - - - -
26/08:30pm 14.6 - - - 1018.4 - - - - - - - - -
26/08:00pm 14.8 - - - 1018.0 - - - - - - - - -
26/07:30pm 14.5 - - - 1017.6 - - - - - - - - -
26/07:00pm 14.5 - - - 1017.2 - - - - - - - - -
26/06:30pm 14.7 - - - 1016.6 - - - - - - - - -
26/06:00pm 15.2 - - - 1016.1 - - - - - - - - -
26/05:30pm 15.1 - - - 1016.0 - - - - - - - - -
26/05:00pm 15.4 - - - 1015.7 - - - - - - - - -
26/04:30pm 15.5 - - - 1015.5 - - - - - - - - -
26/04:00pm 15.0 - - - 1015.6 - - - - - - - - -
26/03:30pm 14.5 - - - 1015.2 - - - - - - - - -
26/03:00pm 14.7 - - - 1015.0 - - - - - - - - -
26/02:30pm 14.9 - - - 1014.8 - - - - - - - - -
26/02:00pm 14.2 - - - 1014.9 - - - - - - - - -
26/01:30pm 14.9 - - - 1014.6 - - - - - - - - -
26/01:00pm 13.6 - - - 1014.9 - - - - - - - - -
26/12:30pm 14.3 - - - 1014.3 - - - - - - - - -
26/12:00pm 13.5 - - - 1014.2 - - - - - - - - -
26/11:30am 14.9 - - - 1013.9 - - - - - - - - -
26/11:00am 14.7 - - - 1013.5 - - - - - - - - -
26/10:30am 14.6 - - - 1013.3 - - - - - - - - -
26/10:00am 14.2 - - - 1013.1 - - - - - - - - -
26/09:30am 14.1 - - - 1012.6 - - - - - - - - -
26/09:00am 13.5 - - - 1012.2 - - - - - - - - -
26/08:30am 13.5 - - - 1011.9 - - - - - - - - -
26/08:00am 13.4 - - - 1011.3 - - - - - - - - -
26/07:30am 13.7 - - - 1011.1 - - - - - - - - -
26/07:00am 13.6 - - - 1011.1 - - - - - - - - -
26/06:30am 12.0 - - - 1010.8 - - - - - - - - -
26/06:00am 12.5 - - - 1010.2 - - - - - - - - -
26/05:30am 11.5 - - - 1009.7 - - - - - - - - -
26/05:00am 11.3 - - - 1009.4 - - - - - - - - -
26/04:30am 11.8 - - - 1009.2 - - - - - - - - -
26/04:00am 13.4 - - - 1008.8 - - - - - - - - -
26/03:30am 13.3 - - - 1008.5 - - - - - - - - -
26/03:00am 12.7 - - - 1008.3 - - - - - - - - -
26/02:30am 12.9 - - - 1008.6 - - - - - - - - -
26/02:00am 13.0 - - - 1008.8 - - - - - - - - -
26/01:30am 13.3 - - - 1009.1 - - - - - - - - -
26/01:00am 13.5 - - - 1009.7 - - - - - - - - -
26/12:30am 13.8 - - - 1010.2 - - - - - - - - -
26/12:00am 13.6 - - - 1010.5 - - - - - - - - -
 
Date/Time
EDT
Temp

°C
Wind Pressure Rain
since 9am
mm
Weather Cloud Vis
km
Sea
Height
m
Swell
Dir
 
Speed
knots
Gust
knots
hPa Trend Height
m
Period
s
Dir
25/11:30pm 13.7 - - - 1011.0 - - - - - - - - -
25/11:00pm 13.4 - - - 1011.3 - - - - - - - - -
25/10:30pm 13.2 - - - 1011.4 - - - - - - - - -
25/10:00pm 13.1 - - - 1011.6 - - - - - - - - -
25/09:30pm 13.1 - - - 1011.4 - - - - - - - - -
25/09:00pm 13.5 - - - 1011.1 - - - - - - - - -
25/08:30pm 13.9 - - - 1011.0 - - - - - - - - -
25/08:00pm 14.1 - - - 1010.7 - - - - - - - - -
25/07:30pm 14.6 - - - 1010.0 - - - - - - - - -
25/07:00pm 15.1 - - - 1009.7 - - - - - - - - -
25/06:30pm 15.4 - - - 1009.2 - - - - - - - - -
25/06:00pm 15.5 - - - 1008.7 - - - - - - - - -
25/05:30pm 15.4 - - - 1008.5 - - - - - - - - -
25/05:00pm 15.3 - - - 1008.0 - - - - - - - - -
25/04:30pm 16.7 - - - 1007.7 - - - - - - - - -
25/04:00pm 16.3 - - - 1007.4 - - - - - - - - -
25/03:30pm 16.8 - - - 1007.2 - - - - - - - - -
25/03:00pm 16.2 - - - 1007.1 - - - - - - - - -
25/02:30pm 16.9 - - - 1007.0 - - - - - - - - -
25/02:00pm 17.6 - - - 1006.4 - - - - - - - - -
25/01:30pm 16.9 - - - 1006.4 - - - - - - - - -
25/01:00pm 16.4 - - - 1006.3 - - - - - - - - -
25/12:30pm 16.1 - - - 1006.0 - - - - - - - - -
25/12:00pm 15.8 - - - 1006.0 - - - - - - - - -
25/11:30am 15.7 - - - 1005.5 - - - - - - - - -
25/11:00am 15.7 - - - 1005.3 - - - - - - - - -
25/10:30am 15.4 - - - 1004.9 - - - - - - - - -
25/10:00am 15.1 - - - 1004.8 - - - - - - - - -
25/09:30am 14.8 - - - 1004.6 - - - - - - - - -
25/09:00am 14.7 - - - 1004.1 - - - - - - - - -
25/08:30am 14.4 - - - 1003.7 - - - - - - - - -
25/08:00am 14.1 - - - 1003.1 - - - - - - - - -
25/07:30am 13.6 - - - 1002.8 - - - - - - - - -
25/07:00am 13.3 - - - 1002.6 - - - - - - - - -
25/06:30am 12.7 - - - 1002.2 - - - - - - - - -

Other Formats:

Comma delimited format used in spreadsheet applications
http://www.bom.gov.au/fwo/IDT60701/IDT60701.95987.axf

JavaScript Object Notation format (JSON) in row-major order
http://www.bom.gov.au/fwo/IDT60701/IDT60701.95987.json